GFSCGP_sfc_30mbdewp_003.txt.gz
Dewpoint
19 15 16 18 18 14 11 10 9 13 18 17 19 14 19 22 22 23 21 22 22 22 34 42 40 40 43 47 45 44 45 46 43 41 38 36 36 37 39 40 41 42 42 41
13 17 19 22 21 19 16 14 14 17 19 19 19 16 20 22 24 24 23 25 29 33 35 37 38 40 41 46 46 46 44 40 38 37 39 40 41 39 40 39 38 38 39 39
17 20 22 22 21 21 19 17 21 20 20 18 19 18 19 21 23 24 26 27 27 29 32 35 38 42 43 44 42 40 40 40 39 38 37 37 37 37 36 37 37 38 40 37
20 24 23 23 24 24 20 23 24 21 19 15 19 13 20 20 22 25 27 28 28 28 30 31 35 38 42 41 40 39 39 38 38 39 38 38 37 36 38 38 38 37 35 32
22 24 25 24 25 26 25 28 25 24 21 19 17 12 22 20 21 24 27 29 30 32 33 34 36 37 39 41 42 40 39 38 39 38 38 39 39 40 41 39 37 36 32 32
25 27 28 27 27 27 28 27 26 26 23 19 21 17 20 22 24 26 29 31 33 32 35 35 36 37 40 41 41 40 38 37 39 40 40 41 42 41 36 34 33 31 32 31
24 26 28 29 26 29 25 23 22 22 20 20 22 16 23 26 26 28 30 31 34 36 35 35 35 36 38 39 40 38 37 37 38 39 39 36 35 35 34 33 32 32 30 30
20 24 26 28 28 26 24 26 25 17 18 18 21 13 23 27 29 30 30 32 33 35 36 36 36 37 38 39 39 41 40 38 36 37 37 36 36 35 34 34 33 32 31 32
23 24 28 29 29 28 26 25 26 27 28 26 16 19 26 27 28 28 29 31 32 34 34 35 35 36 38 38 39 40 40 39 39 39 37 36 35 34 34 33 32 32 32 31
25 25 25 27 29 30 29 28 25 22 21 11 9 9 20 26 25 28 27 29 31 33 34 34 35 36 37 37 38 39 40 39 39 38 36 34 34 34 32 31 31 31 31 32
24 23 24 25 27 25 27 27 25 19 21 18 15 15 24 24 26 26 28 29 30 31 33 34 35 36 37 37 38 39 39 40 37 35 34 34 33 32 31 30 31 33 35 34
30 26 21 19 29 31 29 26 24 20 18 22 24 22 26 26 26 27 29 30 32 33 34 34 34 35 36 38 38 38 39 37 36 34 33 31 30 31 30 31 33 33 34 35
31 28 20 19 28 29 26 26 24 27 27 24 23 23 28 29 29 26 28 32 32 34 35 35 37 37 37 37 38 38 38 37 36 34 31 29 29 29 31 31 31 31 30 30
35 27 22 17 16 19 19 19 20 22 24 24 24 23 23 24 26 27 29 32 34 35 35 36 36 36 36 36 36 36 36 37 36 32 30 28 28 28 27 27 26 24 23 21
33 27 27 25 22 20 20 21 21 19 21 23 25 23 24 26 28 30 31 32 33 34 36 37 36 34 33 31 32 32 36 36 34 33 31 28 26 25 23 22 22 20 18 16
33 30 31 26 23 21 21 20 20 21 23 23 23 23 28 29 29 31 34 35 35 36 38 37 33 32 31 29 29 30 34 31 31 32 29 26 25 25 22 20 18 15 14 14
34 33 29 27 29 28 26 28 22 22 23 26 24 25 27 29 34 35 36 36 37 38 37 35 32 29 27 25 25 28 29 29 30 29 27 24 24 26 21 19 14 13 14 15
38 34 36 31 30 25 27 25 24 24 25 24 24 27 31 34 35 35 38 37 36 35 35 31 28 25 21 21 23 26 28 26 25 25 25 24 26 25 22 18 15 14 15 15
36 37 32 30 25 24 25 26 25 26 26 26 31 34 36 36 35 34 37 35 35 34 30 26 23 20 18 18 21 24 24 23 24 24 25 26 26 28 22 17 15 15 15 16
36 39 34 31 27 23 28 28 30 30 25 36 36 36 38 36 32 31 33 34 32 27 22 21 21 20 17 16 18 20 21 22 24 22 20 23 24 25 23 17 15 15 15 16
33 34 32 30 28 27 28 30 32 27 31 38 38 39 37 34 34 35 34 28 23 20 19 19 18 16 16 18 19 19 19 21 23 20 21 24 25 23 19 15 15 15 16 19
29 32 30 32 29 26 30 31 34 34 36 39 39 39 36 37 33 29 24 21 20 19 18 16 14 15 17 17 18 19 17 20 23 24 24 22 21 19 14 16 15 16 17 20
26 29 29 31 28 29 34 39 39 38 38 39 40 39 38 33 27 24 21 19 19 17 14 13 13 15 16 17 17 17 25 28 27 28 26 21 18 15 15 16 15 15 16 20
30 29 31 33 31 31 35 38 39 41 40 40 40 38 31 27 24 21 20 19 16 14 13 13 15 16 17 18 19 20 28 30 26 24 20 18 17 20 19 17 15 15 19 20
32 32 32 33 32 33 35 40 40 39 40 40 37 32 28 23 21 21 19 16 15 15 15 17 17 17 18 20 21 22 25 24 22 23 19 20 20 20 20 18 17 18 20 18
33 31 33 33 36 38 39 41 39 38 37 37 30 27 24 23 22 19 16 16 16 16 17 16 16 18 21 23 24 25 26 25 24 22 20 22 24 22 21 19 18 20 19 17

GFSCGP_sfc_30mbdewp_006.txt.gz
Dewpoint
17 17 19 19 17 14 10 7 7 14 17 15 12 15 18 21 21 22 21 22 22 27 39 43 43 43 44 46 45 51 51 49 46 45 43 43 43 42 43 43 43 42 45 43
11 18 19 18 16 15 13 12 12 15 17 14 16 14 19 22 24 24 23 26 32 36 37 39 42 45 49 49 50 50 47 43 42 42 43 43 43 42 42 44 43 44 43 42
21 20 19 18 20 19 17 16 23 20 20 19 15 17 19 22 24 25 27 29 31 33 36 39 43 45 46 45 43 42 41 41 42 42 41 40 40 40 41 42 42 43 43 40
21 21 22 20 22 23 19 26 23 20 18 15 15 12 19 21 24 26 28 30 29 30 32 36 41 43 43 43 43 41 40 39 41 41 41 40 39 40 42 45 45 45 41 40
22 23 24 24 24 24 24 26 23 22 20 18 16 17 21 21 22 26 29 30 32 34 35 36 39 41 42 43 43 42 40 39 40 40 40 41 44 45 45 44 42 39 39 37
24 25 27 27 26 25 27 26 24 24 23 21 18 19 25 22 24 27 30 32 33 34 35 36 38 41 42 43 42 41 39 38 40 41 43 41 39 39 39 39 38 37 36 35
24 25 28 26 27 28 24 24 23 25 21 21 23 18 26 26 28 28 30 32 35 36 36 36 37 38 39 40 40 41 42 40 40 39 39 39 40 40 38 38 37 35 35 36
21 25 25 26 26 24 25 24 27 21 24 22 19 13 24 28 29 29 30 31 33 35 36 36 37 38 38 39 40 42 41 40 40 41 40 41 40 38 38 38 35 35 35 36
23 24 27 26 27 25 26 24 22 26 29 24 16 24 27 27 28 28 29 30 32 33 35 35 35 37 38 39 40 41 41 41 41 42 41 39 38 38 37 35 36 35 37 35
22 25 22 23 28 29 25 24 23 25 20 15 13 17 26 26 27 27 27 28 29 33 34 35 36 37 38 39 41 42 41 41 40 38 36 36 36 36 36 35 35 36 36 35
25 24 23 25 25 24 26 25 24 20 22 19 18 17 22 25 26 26 28 29 30 32 33 35 36 38 38 39 39 41 40 39 39 38 36 35 35 34 34 34 35 35 34 34
26 25 24 20 26 27 26 24 22 23 20 23 24 20 27 28 31 30 30 32 33 36 36 36 38 38 37 38 39 40 40 40 39 38 36 34 33 32 32 33 31 31 31 33
31 28 24 23 29 27 23 24 23 29 29 24 22 24 29 34 32 30 29 33 35 35 35 36 37 37 36 36 37 36 37 38 38 37 35 33 31 30 30 29 29 29 29 29
35 26 22 21 18 19 18 18 19 19 26 25 25 23 25 33 31 29 30 33 34 35 37 37 37 37 34 33 33 33 33 38 38 36 34 32 31 28 27 28 26 25 25 22
31 27 28 25 22 20 19 19 19 19 20 20 23 21 24 28 29 34 35 35 36 37 37 37 37 35 33 31 30 29 30 32 36 36 33 33 30 27 27 27 25 24 22 20
32 33 32 26 22 22 21 21 20 19 19 21 23 23 28 33 34 35 36 36 37 36 35 34 34 31 29 28 26 24 25 28 32 30 31 31 30 27 27 27 25 22 20 19
35 33 32 27 29 30 28 28 22 22 22 23 23 26 31 33 34 34 36 37 36 33 33 33 30 28 25 21 20 20 22 23 28 28 28 32 35 33 32 28 24 21 19 20
36 35 36 28 31 23 26 25 25 24 23 24 24 29 34 34 35 34 37 36 33 33 32 29 24 22 22 21 19 19 18 19 21 22 28 33 33 32 29 28 27 23 20 20
36 37 30 30 26 25 25 27 27 27 27 27 31 35 35 35 34 33 34 33 31 30 26 21 20 21 20 18 18 19 19 19 20 19 29 30 33 28 29 28 27 22 19 20
37 39 35 31 26 22 26 29 31 30 27 36 37 37 36 34 32 32 34 32 28 23 20 19 18 17 15 17 17 17 17 18 19 30 30 28 26 27 28 28 25 20 20 21
32 34 32 31 27 29 28 30 32 26 32 38 39 38 37 35 37 37 32 26 22 20 18 18 15 15 16 16 16 17 17 17 26 28 29 31 30 27 24 23 19 20 20 23
30 31 30 31 27 25 31 30 30 36 39 39 38 38 38 38 38 31 25 22 20 18 16 14 14 14 16 16 17 17 17 21 27 30 29 29 27 25 20 19 20 19 20 24
26 32 32 33 32 33 33 35 38 41 40 39 39 38 37 37 33 26 22 21 20 17 14 15 14 16 17 18 17 18 21 23 26 28 25 25 23 21 21 19 18 18 21 22
28 27 32 32 32 31 33 34 41 41 39 38 38 38 37 31 26 23 22 21 18 16 16 16 17 16 17 18 20 22 24 25 26 24 24 24 22 21 21 20 19 20 22 22
33 31 30 32 32 33 35 40 40 40 38 39 38 36 29 25 23 22 20 18 18 17 18 18 17 17 20 20 23 25 25 25 25 25 24 24 26 25 23 21 21 21 23 19
35 29 32 34 36 38 39 40 39 39 38 36 34 28 26 25 21 18 18 19 17 17 17 17 18 21 21 24 25 26 25 26 28 27 26 26 25 25 23 22 22 22 20 19

GFSCGP_sfc_30mbdewp_009.txt.gz
Dewpoint
23 21 19 17 16 15 14 13 16 17 17 14 12 18 23 26 25 24 31 39 40 41 44 48 49 51 53 54 55 54 53 51 50 46 43 42 41 43 43 42 44 42 41 41
19 18 18 19 21 19 15 21 21 18 18 13 13 18 23 26 27 29 32 36 38 41 44 45 44 43 47 49 48 45 44 43 43 43 44 43 43 42 41 42 43 45 44 43
20 19 19 19 24 22 23 23 22 20 20 18 18 20 22 25 27 29 31 33 37 40 42 43 43 43 42 42 41 40 40 40 42 41 39 40 40 41 41 44 44 43 44 39
20 21 23 23 24 23 25 27 25 21 20 16 17 17 22 26 28 30 32 34 35 38 42 42 42 42 42 43 41 40 40 39 40 41 41 40 42 43 44 44 43 42 38 36
23 25 26 25 24 24 26 26 25 23 22 21 19 19 21 27 28 29 30 33 35 37 39 41 42 42 43 42 41 41 40 40 40 40 40 42 40 40 42 43 38 37 36 37
24 28 27 26 27 25 25 27 27 26 25 22 24 23 25 29 28 30 32 34 35 36 38 40 42 42 42 41 41 39 39 40 41 41 43 41 38 40 38 37 35 35 36 37
25 27 27 27 27 27 27 27 25 23 24 23 27 25 28 29 30 31 34 35 36 37 37 38 40 41 41 41 41 42 41 40 41 41 41 40 38 38 37 35 35 34 36 36
24 24 25 27 25 24 27 26 21 22 20 20 16 24 26 29 30 31 33 34 36 36 36 36 36 38 39 39 40 41 41 41 42 42 39 39 38 38 38 35 35 37 37 36
26 24 27 24 26 27 27 21 23 27 29 24 23 26 27 28 29 29 30 31 35 36 35 35 38 39 39 40 41 42 41 40 38 36 37 37 37 38 36 35 37 36 36 35
23 23 22 22 27 28 22 24 24 22 19 16 18 26 28 29 30 29 28 30 33 35 36 38 38 39 39 40 41 41 40 39 39 37 38 37 37 36 36 35 34 34 34 33
29 29 23 25 24 25 26 26 24 24 23 19 19 20 30 31 31 30 32 35 36 36 37 38 38 38 39 39 40 40 39 39 39 38 37 35 35 33 34 34 32 32 31 31
27 26 22 24 26 26 25 25 25 20 23 25 24 20 33 32 32 33 33 35 36 36 37 38 38 37 36 36 35 34 35 38 39 38 37 35 34 31 31 30 31 30 29 31
30 25 23 26 29 28 22 23 28 30 27 19 16 21 32 34 34 35 33 35 35 37 38 38 37 37 35 33 33 34 33 37 37 37 37 35 34 30 29 27 29 28 26 25
36 26 24 21 21 20 18 19 22 28 27 24 24 23 25 34 34 35 36 36 37 37 36 36 35 35 33 32 31 30 28 30 35 37 37 37 38 34 29 30 28 25 24 21
32 30 28 26 24 22 21 20 21 20 21 22 21 26 32 35 35 36 36 37 37 35 34 34 33 32 30 28 24 22 23 25 26 35 34 34 36 34 35 33 30 29 24 22
36 33 28 25 28 25 23 24 24 22 21 22 24 26 34 35 35 35 37 36 34 33 33 32 32 30 25 22 21 21 21 21 22 21 22 33 36 35 35 35 34 28 22 20
36 32 28 25 29 31 26 27 25 24 25 23 22 28 35 34 34 36 36 33 32 32 32 31 30 26 23 21 21 19 19 20 21 21 29 34 36 35 35 36 33 27 24 21
33 35 32 22 28 13 29 27 26 26 27 28 33 35 35 34 36 35 34 32 31 31 30 29 27 20 20 19 18 18 18 18 19 27 29 31 33 33 35 35 29 26 24 21
37 34 25 21 25 24 26 27 28 27 27 36 36 36 36 35 34 34 33 32 31 27 24 21 19 18 17 17 17 17 18 18 19 28 29 29 30 32 33 35 31 27 24 23
39 35 31 28 17 9 27 30 32 31 27 38 38 37 36 35 30 33 36 33 24 22 21 18 16 15 16 16 17 17 17 18 26 29 29 31 32 31 32 32 29 24 21 26
33 33 28 29 25 27 32 31 32 25 26 39 39 38 37 35 36 38 38 26 22 21 18 17 15 15 16 17 17 17 18 20 27 29 30 29 29 29 28 25 20 20 25 25
24 26 28 30 26 21 31 31 27 33 40 40 38 38 38 38 38 38 28 23 22 20 16 16 16 17 18 18 19 19 21 23 26 28 28 26 26 24 22 20 20 23 22 21
27 29 29 30 27 30 33 32 36 40 40 39 39 38 37 37 37 30 24 23 21 17 17 17 18 18 19 20 20 23 25 26 27 27 25 25 25 24 23 21 20 21 22 21
30 34 32 33 34 33 35 40 41 41 40 39 38 37 38 37 28 24 24 20 18 18 17 18 18 18 20 22 23 26 26 25 26 26 25 25 26 25 24 22 22 22 21 19
30 33 31 32 34 35 40 41 40 39 39 39 39 38 35 26 25 20 19 18 18 17 18 19 20 22 23 25 27 27 27 25 27 27 26 26 26 25 25 23 21 22 20 19
35 32 31 29 36 37 40 40 40 39 39 40 38 28 26 22 18 18 17 19 19 20 21 22 24 24 25 28 28 29 29 28 27 26 26 25 25 26 25 24 24 23 22 20

GFSCGP_sfc_30mbdewp_012.txt.gz
Dewpoint
25 19 16 16 17 16 15 17 16 16 17 14 21 24 25 29 36 38 42 44 43 43 45 49 52 55 55 55 55 53 52 50 51 46 45 43 42 41 43 45 45 44 44 43
21 17 18 22 24 23 22 18 18 20 20 13 21 24 27 31 33 38 41 43 43 41 43 44 47 46 47 47 48 45 43 43 43 44 44 45 43 43 43 44 44 44 40 39
20 18 21 24 23 25 26 22 21 20 21 19 22 22 27 30 33 35 37 42 43 43 41 42 43 44 44 43 41 40 40 41 41 41 40 41 41 42 44 44 42 38 37 38
21 28 25 25 23 25 25 27 24 22 19 11 18 18 24 30 32 35 38 41 42 42 42 41 41 42 41 40 40 39 39 39 40 40 40 41 42 42 44 43 39 36 37 37
25 26 26 24 24 25 24 27 25 23 22 23 21 20 24 29 30 33 36 39 40 41 41 41 41 41 41 41 40 40 40 40 40 40 41 42 41 41 42 38 36 35 37 39
26 28 26 25 27 26 26 27 29 27 26 21 26 23 25 27 29 32 35 37 39 40 41 42 42 41 41 41 40 39 41 41 42 42 43 41 39 39 37 35 34 36 38 38
26 26 27 28 27 27 27 28 23 22 23 22 27 26 28 29 32 34 35 36 37 39 40 40 40 40 41 41 42 42 41 42 42 40 39 38 38 37 35 35 35 37 37 37
24 23 25 25 25 24 25 25 22 21 18 18 25 25 27 32 35 35 36 36 36 37 39 40 40 40 40 42 42 41 38 37 38 37 37 37 37 38 37 36 38 37 36 36
24 23 27 24 25 28 26 23 26 26 28 23 25 26 28 30 31 31 32 35 36 36 38 39 39 40 41 40 40 40 39 38 37 37 37 37 38 38 36 37 36 35 35 35
26 19 23 23 29 28 22 25 23 22 15 15 21 25 25 28 29 31 33 35 36 38 37 38 38 39 41 41 40 39 39 39 38 38 37 36 36 37 36 35 34 34 33 32
31 24 23 29 25 25 25 24 25 25 23 15 18 22 31 31 32 33 35 36 36 37 38 38 37 37 37 35 35 36 37 38 39 38 37 37 35 34 35 34 33 33 32 31
29 25 23 24 26 27 26 25 25 15 22 25 23 21 33 32 33 35 35 35 37 38 37 37 37 36 34 33 33 33 32 33 38 38 38 37 36 34 32 34 34 32 31 31
30 25 22 26 29 27 25 24 29 28 24 16 14 16 33 35 35 35 35 36 37 37 36 35 35 34 32 32 30 26 25 27 30 33 35 36 35 36 32 31 30 30 30 31
36 29 23 18 22 22 18 20 29 26 22 22 21 20 32 34 34 35 36 37 36 35 34 33 32 32 31 28 23 22 23 24 24 24 28 30 33 37 33 33 32 33 34 35
32 27 28 25 26 23 22 21 22 22 24 22 21 25 30 34 35 36 37 36 34 33 32 32 32 31 29 23 22 21 21 20 22 22 27 34 35 35 35 35 35 34 35 36
37 29 25 24 29 28 21 22 24 23 22 23 24 31 35 35 36 37 35 33 33 32 31 31 30 30 24 22 19 19 18 19 21 23 31 33 35 35 35 36 36 36 36 24
33 29 23 14 29 28 21 25 26 24 26 24 22 30 35 35 36 35 34 32 32 30 29 29 29 22 21 19 18 16 17 19 21 28 30 30 35 33 34 36 36 36 31 29
33 32 27 18 23 9 24 28 27 26 31 34 34 34 34 35 36 34 33 31 31 31 28 26 19 18 18 17 16 17 18 19 21 28 29 30 31 31 33 34 34 34 34 25
34 29 24 14 20 18 23 28 27 25 27 36 35 35 35 36 34 33 32 31 30 26 23 20 18 17 17 16 17 17 17 18 25 28 29 30 31 31 31 31 32 32 28 25
35 30 20 26 11 3 18 30 32 30 26 37 37 36 35 34 31 31 37 37 24 21 20 17 15 16 16 16 17 18 19 20 26 29 29 30 30 31 30 30 31 24 24 26
33 32 24 25 20 21 25 32 32 25 18 39 38 38 36 33 33 36 39 28 22 21 16 16 17 17 17 18 19 20 21 22 26 28 29 29 27 25 25 22 21 24 25 23
24 24 27 28 24 15 31 32 27 28 38 39 38 38 38 38 38 38 35 23 21 16 17 17 17 18 19 21 21 22 23 25 26 27 27 26 25 25 23 21 23 23 22 21
23 23 22 27 23 28 32 31 33 39 39 39 38 38 38 37 37 36 25 20 18 17 17 18 18 20 21 23 23 25 25 26 26 27 26 25 25 25 25 21 21 22 21 19
31 33 30 31 30 32 33 38 39 41 39 39 40 38 38 37 35 24 20 18 17 17 18 19 21 22 23 24 27 27 28 28 27 26 26 26 26 25 25 22 22 21 19 19
28 34 31 32 33 38 39 40 40 39 39 38 38 37 38 30 20 19 18 18 19 19 21 22 23 25 25 26 28 28 30 28 26 27 26 25 25 25 25 21 22 21 20 19
34 30 29 27 32 32 35 40 40 39 39 40 38 27 22 19 18 18 19 21 21 22 22 23 25 26 27 28 27 29 31 31 30 29 27 25 25 25 24 24 23 23 23 22

GFSCGP_sfc_30mbdewp_015.txt.gz
Dewpoint
23 18 16 17 19 16 15 16 15 16 16 23 25 28 33 39 42 42 43 44 47 47 50 51 53 55 54 54 54 55 54 53 48 47 44 44 44 45 45 45 44 41 41 39
20 17 21 27 24 22 19 17 19 21 21 25 27 29 33 37 41 42 42 43 45 47 47 48 50 51 52 50 47 46 47 46 45 46 48 48 45 43 46 43 40 39 38 38
19 20 24 24 25 23 25 21 20 19 22 25 27 28 31 34 39 42 42 42 43 46 46 47 48 48 48 42 41 41 41 41 43 43 43 42 43 43 44 41 37 38 38 39
26 28 25 23 22 25 22 26 23 21 21 20 21 22 29 33 38 40 42 42 42 43 43 43 42 40 39 39 39 39 39 40 40 41 40 40 41 41 43 41 37 38 39 39
25 26 25 22 24 25 24 27 23 23 22 21 21 23 27 32 35 38 40 41 41 41 41 40 39 39 39 40 39 40 41 41 41 41 42 43 41 42 39 37 36 38 39 39
26 28 26 26 27 27 26 28 29 30 26 21 27 23 25 28 32 36 38 40 41 40 41 41 41 41 41 41 40 42 42 42 41 40 39 39 38 36 35 35 34 38 38 39
25 25 27 28 27 27 27 27 22 21 22 22 26 25 26 29 32 35 37 38 40 41 41 41 41 41 41 42 42 41 40 38 38 37 37 37 36 36 35 35 35 38 38 39
24 19 23 24 25 24 24 26 23 20 21 18 26 25 28 32 34 36 37 38 39 40 40 40 40 40 40 40 39 37 37 36 36 37 36 36 37 38 37 36 37 38 37 36
22 22 27 24 25 28 25 23 27 25 26 23 25 27 29 32 35 35 35 37 37 38 39 39 40 40 39 39 39 39 39 37 37 37 37 36 37 38 37 37 37 37 36 36
27 20 24 24 28 27 24 27 21 21 12 14 22 25 25 29 31 31 35 36 38 38 38 39 39 39 38 37 38 38 39 38 38 38 38 38 37 37 37 37 36 35 35 35
30 21 22 26 25 25 25 23 25 26 22 13 17 24 30 29 31 32 36 37 37 37 36 37 37 37 36 35 34 35 34 35 38 39 38 38 38 36 35 35 35 34 33 33
30 26 23 23 27 29 26 24 22 14 20 24 21 19 32 32 34 35 36 36 37 37 37 37 36 35 34 33 33 29 28 27 28 30 31 31 33 34 35 33 34 33 32 33
30 25 22 25 26 26 25 26 28 25 23 21 18 15 32 34 35 35 36 37 37 36 35 34 34 32 32 31 27 24 24 23 24 25 28 30 32 33 34 33 31 32 31 30
33 29 20 13 21 23 19 24 28 24 19 19 17 19 32 34 34 35 37 37 36 34 34 32 32 32 31 27 23 22 21 22 22 22 25 29 32 32 32 33 32 32 32 34
31 25 27 26 26 23 21 20 26 25 25 21 21 23 26 34 35 35 37 36 34 33 31 31 30 30 29 23 21 20 19 20 21 21 26 30 34 35 35 35 35 35 34 35
35 27 23 26 29 27 21 22 22 23 23 25 24 24 35 35 36 37 36 34 33 31 28 28 29 29 24 21 18 18 17 18 21 21 27 31 33 34 34 35 36 36 36 34
30 28 18 9 28 23 15 19 24 24 25 23 22 27 35 35 36 36 35 33 32 30 27 28 29 24 21 19 18 16 16 18 20 21 29 30 31 33 31 33 35 34 34 35
31 27 22 16 18 7 13 27 27 25 27 31 31 33 34 35 36 36 34 33 32 30 30 28 23 19 19 18 17 17 17 18 19 22 29 30 30 30 31 31 32 33 33 32
33 26 20 13 14 14 14 25 26 26 24 34 33 34 34 36 34 34 34 32 31 30 26 23 19 17 17 16 17 18 18 19 20 27 28 29 30 31 31 30 30 31 30 25
31 26 17 23 10 1 8 30 31 29 23 35 35 34 35 34 31 32 34 33 33 25 21 16 16 17 17 17 19 20 20 21 23 27 28 29 30 28 26 26 28 24 25 25
33 31 22 20 15 17 21 31 30 23 14 37 37 36 35 33 33 33 37 37 26 19 16 17 17 17 19 20 21 21 22 23 24 27 27 28 26 25 25 23 22 24 25 22
27 26 26 24 20 13 27 31 27 27 31 38 38 37 36 35 36 38 38 23 18 17 17 17 17 19 21 23 23 23 24 25 26 27 27 26 25 25 24 21 24 24 22 20
24 23 20 24 19 27 31 31 33 34 35 39 39 39 38 37 38 38 26 18 17 16 17 18 19 21 23 24 25 26 27 27 28 28 27 25 26 25 25 21 22 22 21 19
31 31 26 28 26 29 30 32 36 38 38 39 39 39 39 37 37 27 20 18 17 17 19 20 21 23 24 25 27 28 28 29 28 26 27 26 26 25 25 23 22 21 20 19
31 33 30 31 32 35 37 37 37 40 40 39 39 38 37 37 27 20 18 18 18 20 21 22 23 25 24 27 28 27 28 30 29 29 28 27 29 25 24 21 22 21 21 20
34 28 27 23 28 32 32 38 40 39 39 39 37 35 31 24 19 18 19 20 21 21 21 23 24 25 26 29 27 27 29 30 29 29 29 30 29 26 24 23 23 23 24 23

GFSCGP_sfc_30mbdewp_018.txt.gz
Dewpoint
23 17 15 18 14 11 14 13 13 15 19 28 32 34 37 42 42 42 45 46 48 49 51 54 54 55 55 56 57 57 56 55 54 47 45 45 44 48 45 41 41 41 39 38
18 18 22 26 24 21 18 17 19 22 25 31 33 34 38 40 42 43 45 47 48 49 50 51 52 52 52 53 54 55 54 49 46 46 47 48 47 45 44 40 39 39 39 39
18 22 24 25 24 20 24 20 20 20 27 29 29 29 35 39 42 42 43 45 47 48 49 51 51 48 45 45 47 46 45 44 46 46 43 43 43 45 43 38 37 39 39 39
26 27 24 22 24 25 20 26 22 23 23 21 24 23 31 38 40 41 42 44 46 47 46 45 42 40 40 40 40 40 40 40 41 41 42 42 42 41 41 37 37 38 38 37
25 25 23 22 24 25 24 27 24 23 21 21 23 24 28 37 39 40 41 42 43 43 43 40 38 38 40 39 40 42 42 42 42 42 42 41 40 39 37 36 37 36 38 38
26 28 26 25 27 26 27 28 28 29 25 19 26 22 25 33 36 39 40 41 41 41 40 40 40 40 40 41 41 41 40 39 38 38 38 37 36 35 35 35 35 37 38 39
24 25 26 27 26 26 29 26 22 22 22 20 26 24 24 31 34 38 39 40 41 41 41 40 40 41 42 41 41 39 38 36 37 37 37 36 36 35 35 35 35 36 37 38
20 16 21 25 25 24 23 26 22 19 21 21 26 24 26 31 33 38 39 39 40 41 41 41 41 41 39 38 37 37 37 36 37 37 36 36 36 37 37 37 36 37 37 38
22 20 26 24 26 28 25 21 27 24 25 22 25 27 31 34 35 36 37 38 40 40 40 40 40 39 39 39 39 38 37 37 37 37 38 38 37 37 38 38 37 37 37 37
26 21 24 24 28 27 25 28 20 21 10 9 22 25 25 32 33 35 36 37 38 39 39 39 39 38 37 38 38 39 38 38 39 39 38 38 38 36 35 35 35 35 35 35
27 22 21 25 25 25 25 23 25 24 21 11 13 20 28 32 34 33 35 37 38 38 38 38 38 37 35 35 35 34 32 34 32 30 31 29 30 32 33 33 33 34 34 33
29 25 22 21 27 30 26 24 21 12 16 22 20 14 28 32 32 33 36 37 37 37 37 37 36 35 33 33 31 26 27 25 25 27 27 27 30 32 33 32 32 33 33 33
28 25 21 22 23 25 25 27 25 23 24 21 16 12 32 34 34 35 36 37 37 36 36 36 35 33 33 31 26 24 24 21 23 23 24 26 29 31 30 30 30 31 32 32
30 26 19 11 17 23 21 26 25 21 17 17 19 17 30 33 33 35 36 37 36 34 34 32 33 32 31 29 24 23 21 21 20 21 23 26 29 31 32 32 33 33 34 33
28 23 25 26 27 24 20 21 26 23 22 18 19 20 21 32 34 35 37 36 35 34 33 31 31 31 30 24 22 21 19 20 20 21 21 25 31 33 35 35 34 35 35 35
33 25 22 24 29 27 23 22 22 26 25 25 25 24 26 32 36 36 36 35 34 33 31 30 30 29 29 23 20 18 17 17 20 21 21 28 31 31 33 33 32 34 34 34
29 26 18 13 26 21 13 18 21 22 23 22 19 21 34 34 35 36 36 35 34 33 29 28 28 28 22 21 19 16 16 18 19 20 21 28 30 30 31 31 32 32 32 33
27 23 17 13 17 5 12 27 26 23 25 25 28 29 33 34 36 37 36 35 34 32 28 28 28 22 20 19 17 17 18 19 20 20 23 28 29 29 30 31 30 30 31 31
30 23 17 11 14 12 11 19 25 25 22 29 29 32 35 35 35 35 36 34 34 32 31 28 23 18 18 17 17 18 19 20 20 22 27 28 29 29 30 27 26 27 29 25
28 24 15 19 8 2 7 25 30 27 21 28 33 33 34 35 32 33 35 34 32 31 25 20 17 16 17 18 20 21 20 21 22 24 27 28 29 28 26 25 24 26 25 25
32 30 21 17 13 15 18 29 30 19 12 32 35 34 35 34 34 34 35 34 34 24 18 16 17 17 19 21 22 21 22 23 25 26 27 27 28 26 25 23 22 22 25 23
24 25 24 22 19 13 25 31 26 26 29 34 36 35 35 35 35 36 36 34 20 17 18 18 18 19 21 23 23 23 25 26 27 28 28 27 27 25 25 24 23 25 23 20
24 25 20 22 18 24 29 32 32 32 30 36 36 37 37 36 36 38 33 20 17 17 17 18 19 21 23 24 25 26 27 26 28 29 27 27 26 26 25 23 22 22 21 20
31 30 25 26 24 26 30 30 32 34 34 37 39 38 38 37 38 34 21 20 21 17 19 20 21 21 23 25 27 27 26 27 29 27 27 28 27 26 26 25 22 22 21 19
30 31 29 29 29 31 32 35 34 34 38 38 39 39 39 38 35 26 24 22 18 19 21 21 22 24 24 25 28 27 27 28 29 29 29 28 28 29 26 23 22 22 21 22
33 27 25 22 25 26 27 30 37 38 38 39 39 38 33 33 27 25 22 20 20 21 20 21 24 25 25 28 28 28 28 29 29 29 29 29 29 28 27 24 22 24 24 24

GFSCGP_sfc_30mbdewp_024.txt.gz
Dewpoint
26 20 16 13 13 12 9 10 6 16 28 28 28 28 32 40 42 42 42 45 46 47 52 54 55 56 56 58 58 59 58 60 58 57 53 49 48 48 45 43 44 43 42 42
21 18 24 25 17 15 14 11 17 23 28 28 29 31 34 37 41 43 44 44 46 50 52 54 55 56 57 57 58 58 58 58 55 52 48 47 48 46 43 42 43 41 41 40
19 24 26 23 21 18 21 18 21 18 27 29 28 29 33 38 41 43 45 46 48 50 51 53 54 56 57 57 58 57 56 55 48 48 49 49 48 44 42 42 40 40 40 38
25 26 25 23 22 22 18 24 23 24 21 15 25 12 31 37 39 42 45 47 50 51 52 52 53 54 56 56 56 50 48 47 48 47 44 44 42 42 42 40 40 38 38 36
25 24 23 23 25 26 24 27 25 23 21 21 21 16 28 38 38 42 46 48 50 49 48 47 48 50 51 53 49 47 45 44 45 45 45 42 41 39 37 36 36 36 35 37
26 28 27 27 28 27 28 26 25 24 22 17 18 20 13 31 33 41 45 46 48 45 42 41 42 43 44 45 45 44 42 42 42 41 40 38 35 31 29 31 31 29 31 32
24 25 26 29 26 30 28 24 17 20 18 14 25 21 13 25 35 40 43 43 44 42 40 40 40 39 41 43 44 43 41 41 40 37 33 32 32 32 29 30 30 31 26 26
17 19 23 27 26 22 24 23 16 8 12 13 25 18 20 30 33 40 41 41 41 40 40 39 39 40 42 43 42 41 40 37 34 32 33 36 33 30 30 29 26 24 25 24
18 19 26 28 28 27 25 21 28 25 26 23 17 23 27 32 31 38 40 39 39 39 40 39 40 41 42 42 42 40 35 32 33 39 40 36 33 27 24 25 26 23 23 23
25 21 25 27 28 29 27 27 22 23 18 12 12 16 14 30 31 36 38 38 38 38 39 40 41 42 41 41 40 37 36 35 37 38 34 28 25 24 25 25 23 23 24 25
26 23 25 27 25 24 26 23 23 23 22 10 5 2 25 26 31 33 37 37 37 38 39 41 41 42 41 39 37 39 36 37 36 30 27 26 23 24 25 24 23 25 27 26
28 27 25 25 28 29 27 23 20 13 16 23 21 8 24 31 32 33 36 37 38 39 40 41 41 40 38 36 37 36 35 33 29 27 25 23 23 23 23 23 25 27 28 27
30 27 24 23 25 27 25 25 22 25 25 19 21 6 24 31 32 33 34 37 38 40 40 41 40 38 35 35 35 31 31 28 27 23 21 21 22 23 23 24 27 28 28 27
29 28 24 21 18 23 24 25 22 18 19 14 16 7 17 22 27 29 34 36 38 40 40 40 39 37 34 34 31 28 30 27 24 21 19 20 23 24 25 27 29 29 28 28
32 26 26 24 25 24 22 22 23 19 19 17 9 13 8 16 19 25 32 36 37 38 39 39 38 36 35 33 29 28 29 28 23 21 20 22 24 25 26 30 30 28 28 28
33 28 28 26 27 25 23 22 21 23 21 21 18 17 19 22 25 29 34 35 36 37 37 38 37 35 32 31 30 29 29 24 22 20 21 23 24 25 26 29 28 26 27 27
32 29 25 21 24 24 20 23 21 20 23 23 18 19 21 25 26 27 31 35 35 36 37 37 36 33 31 30 31 30 25 22 21 21 22 22 24 24 25 25 25 25 26 28
31 28 27 24 20 11 14 21 21 20 20 20 21 18 23 23 30 33 34 33 36 36 37 36 35 32 30 31 29 25 21 20 21 22 21 21 23 24 24 24 24 26 26 26
29 28 23 23 17 13 6 16 19 21 15 20 20 20 22 32 34 32 36 36 37 38 37 37 35 31 29 26 23 20 19 20 21 19 18 21 25 25 23 22 24 26 26 25
28 28 27 22 18 13 16 23 29 28 17 21 27 28 30 33 29 19 35 38 38 38 37 35 31 27 23 21 20 20 20 20 17 20 22 24 24 23 22 23 26 26 26 24
32 32 28 27 25 22 21 21 30 18 16 28 31 32 34 32 27 35 36 38 38 37 35 29 24 22 20 21 22 21 19 16 20 24 25 23 23 24 24 26 26 26 25 25
26 29 28 27 24 18 24 29 23 27 31 31 31 33 35 35 37 37 37 37 37 35 29 24 20 20 22 25 21 16 14 20 25 23 22 24 25 25 24 25 26 26 25 25
26 28 27 26 24 27 28 29 32 34 32 32 34 32 36 36 37 36 36 36 31 26 20 20 22 23 25 21 18 14 20 26 24 24 24 25 26 26 24 25 25 26 25 24
30 31 30 27 24 26 28 29 29 30 31 32 32 33 35 36 36 37 35 30 25 23 22 24 29 27 22 21 23 24 25 26 25 25 25 25 26 25 24 24 26 26 24 24
31 31 30 30 29 28 29 30 31 32 35 36 36 37 38 38 38 38 32 26 23 24 30 29 25 21 18 22 24 25 26 26 25 24 25 26 26 26 25 24 25 25 25 25
32 30 30 28 31 30 30 33 35 36 37 39 39 40 39 40 39 33 27 27 31 28 27 26 21 21 21 26 25 25 26 25 26 27 26 26 26 26 26 26 25 26 24 25

GFSCGP_sfc_30mbdewp_030.txt.gz
Dewpoint
28 24 21 29 23 19 17 14 13 11 11 13 18 16 17 22 28 36 38 41 42 42 45 46 45 45 51 58 59 58 59 59 59 57 55 54 52 51 50 49 48 47 47 45
26 22 23 29 22 21 17 16 12 11 15 15 9 12 17 22 25 32 36 39 42 44 48 50 49 51 57 58 60 59 58 58 58 57 54 53 51 50 49 47 47 46 44 43
30 28 29 26 19 16 14 13 18 13 10 6 13 8 19 24 27 27 32 36 40 43 49 50 51 53 59 58 60 59 59 58 58 57 55 53 51 47 45 46 46 44 43 41
31 28 25 19 17 15 19 23 19 17 15 13 21 14 30 31 27 30 32 34 37 41 49 49 51 55 56 58 59 58 58 58 58 56 50 49 47 45 45 46 45 44 42 39
30 28 25 21 22 24 22 24 23 15 15 25 21 24 25 34 30 32 36 39 39 42 46 49 54 56 57 58 58 58 58 57 51 48 49 48 46 46 43 41 39 36 37 38
26 27 30 30 28 24 26 25 22 18 17 23 22 28 23 27 28 34 34 38 41 46 46 48 55 56 55 58 58 58 56 48 48 46 47 47 43 39 37 36 35 34 33 32
22 22 24 30 22 21 18 18 18 25 25 19 17 17 18 27 34 42 42 38 43 45 47 48 51 54 55 55 53 50 47 45 46 46 43 39 36 37 37 36 34 29 28 29
20 18 20 23 20 29 21 15 22 23 25 20 18 14 17 24 26 35 39 43 45 46 46 46 47 49 52 49 48 47 44 44 44 42 38 38 38 36 34 33 29 29 28 27
25 27 29 24 22 21 20 19 20 18 28 21 14 9 21 25 26 32 40 42 44 43 42 43 43 46 47 47 47 45 43 43 42 38 38 37 34 31 29 28 30 31 27 26
37 32 32 24 24 23 21 20 20 17 13 12 10 10 21 25 23 29 38 41 43 42 40 40 40 43 44 45 46 45 44 42 38 39 38 36 33 30 29 30 30 28 27 28
26 33 23 25 21 14 23 22 17 14 20 20 18 13 14 17 22 26 33 39 42 42 41 40 39 41 43 44 45 45 44 39 38 36 36 34 31 31 29 31 30 28 28 28
21 21 19 21 22 24 22 23 20 22 17 21 22 21 19 18 20 26 28 35 39 41 41 40 39 41 42 44 44 45 43 38 37 37 33 33 32 31 31 29 29 28 28 29
27 22 18 16 22 25 21 18 18 21 25 22 22 18 20 19 18 19 24 29 36 39 40 40 40 40 42 43 44 44 41 39 37 33 31 31 32 32 27 29 28 27 28 30
33 23 17 20 18 22 23 21 17 18 23 21 18 13 14 17 19 18 22 24 28 36 38 38 39 41 42 43 43 42 42 39 33 33 32 33 32 29 28 28 27 27 28 29
30 21 19 18 20 23 23 19 18 17 19 19 21 14 13 11 17 17 18 22 25 26 34 36 38 41 42 43 43 41 40 36 35 33 32 29 30 26 28 28 27 28 30 29
31 28 27 27 26 24 23 22 21 17 15 16 14 13 13 16 21 21 21 19 22 25 26 33 37 39 42 42 41 40 38 36 36 33 32 29 30 27 27 26 26 28 29 28
32 32 29 25 25 22 17 21 21 18 17 16 16 19 18 17 16 22 23 24 24 28 28 30 35 37 40 42 41 39 35 36 34 33 30 31 25 25 25 23 23 24 25 27
34 33 32 27 25 13 14 18 16 16 15 14 13 16 16 24 24 23 23 24 27 27 29 30 32 35 38 41 39 38 33 34 35 31 28 26 24 22 21 23 25 25 25 26
32 34 31 28 22 18 18 15 16 16 15 18 18 18 19 21 24 23 28 29 29 30 29 30 33 36 38 39 37 35 33 33 29 25 26 26 20 21 22 24 24 24 24 26
28 32 28 27 25 18 24 21 22 21 16 22 23 23 23 23 24 28 34 32 30 31 31 32 34 37 38 35 34 33 27 24 27 26 25 26 23 23 25 24 24 26 26 26
33 33 29 30 28 29 24 23 25 19 27 27 28 27 27 28 31 33 34 35 34 33 35 37 37 35 33 32 29 30 31 32 30 28 27 25 28 29 25 25 25 26 27 28
32 34 32 34 33 25 23 25 22 32 30 29 29 30 31 33 33 33 33 33 35 35 35 33 27 27 30 31 32 32 31 31 32 31 31 30 27 26 25 25 26 26 26 28
26 31 33 33 31 31 23 24 25 28 29 30 32 32 33 34 35 35 35 36 36 34 30 26 28 30 33 34 32 30 32 31 30 30 28 28 27 26 25 26 26 25 26 26
29 31 31 29 23 24 25 26 27 32 35 35 36 37 38 38 39 38 38 35 30 27 26 30 32 35 34 32 31 28 27 30 29 30 30 28 27 26 27 27 27 26 26 27
32 31 28 27 28 29 30 37 39 39 39 39 39 39 36 37 38 35 28 29 30 33 34 35 34 32 31 27 26 29 30 30 30 28 26 27 28 29 29 28 26 26 27 27
33 30 32 33 37 37 38 37 38 37 36 36 35 34 33 32 31 31 32 33 33 32 31 31 30 28 27 29 29 28 27 27 26 26 27 29 29 29 28 27 26 27 26 26

GFSCGP_sfc_30mbdewp_033.txt.gz
Dewpoint
34 28 26 28 28 26 24 18 17 18 13 27 24 22 21 27 37 39 39 42 42 40 41 42 45 52 55 55 59 59 58 58 58 57 56 54 52 52 52 51 50 49 46 46
30 30 29 28 28 27 26 19 18 18 16 17 19 20 21 23 33 38 40 43 43 43 44 44 49 55 56 57 59 60 58 57 58 57 57 54 52 51 50 47 47 46 45 45
30 31 31 26 26 26 25 24 20 15 11 12 9 15 22 23 25 37 40 42 43 45 47 48 55 57 58 58 59 58 58 57 58 58 57 54 51 49 47 46 45 44 43 41
29 30 30 26 26 25 20 24 25 21 16 11 22 20 27 30 28 29 36 40 43 47 50 50 55 58 59 59 59 59 58 57 58 58 55 51 46 44 46 46 44 42 41 38
26 29 30 29 27 26 25 26 22 23 22 23 23 20 24 29 23 27 34 34 41 49 50 50 55 58 58 59 59 59 59 58 58 58 54 49 46 45 46 45 43 43 41 39
23 31 31 29 28 28 28 22 25 28 26 20 20 19 25 29 28 30 31 37 40 48 50 53 56 57 57 58 58 58 58 58 58 52 51 47 44 41 38 37 35 37 34 32
27 27 27 32 28 28 27 23 22 19 21 22 27 24 22 29 31 34 34 35 41 47 51 55 55 55 56 57 57 58 57 53 48 44 43 41 40 37 35 35 34 29 29 30
21 23 29 29 29 25 23 24 21 20 20 25 28 25 23 27 31 35 39 37 43 45 50 55 55 55 56 56 57 56 51 47 45 40 37 37 37 37 36 34 31 30 29 29
25 27 32 31 33 26 24 22 26 28 32 28 21 16 26 27 32 39 38 40 45 47 48 52 54 55 54 53 51 47 45 45 42 39 38 37 36 34 32 31 31 31 28 29
32 25 33 31 33 24 22 22 20 22 14 14 15 18 23 26 36 37 40 44 45 45 46 47 49 52 51 49 48 47 45 44 41 38 37 34 31 30 30 31 30 29 28 28
33 30 31 33 28 20 23 21 20 20 22 18 19 14 20 24 27 38 41 44 44 42 42 43 44 47 48 47 47 46 44 42 39 38 36 33 31 30 30 30 31 30 29 29
32 33 29 28 28 24 23 22 27 18 17 24 22 20 19 20 26 27 36 42 44 42 41 41 41 44 45 46 46 45 45 39 38 37 36 33 32 31 30 30 33 31 29 30
31 24 21 18 24 27 23 21 20 24 28 21 19 18 20 18 17 26 28 32 43 43 41 40 40 42 44 45 45 45 44 38 37 35 32 32 31 30 31 31 32 30 29 30
32 26 20 16 18 24 24 23 22 19 21 21 21 21 18 20 19 20 21 24 36 42 42 40 40 41 43 44 45 45 43 38 35 32 31 32 32 33 31 33 29 27 29 30
30 23 21 20 24 25 24 24 24 19 22 19 19 21 21 19 20 21 24 25 25 27 36 40 40 41 43 44 45 45 42 37 34 32 32 33 34 33 33 30 29 29 31 30
31 27 27 26 28 25 23 24 24 23 21 19 21 21 21 21 22 22 23 23 25 27 29 30 38 43 44 44 45 44 39 36 35 34 34 34 33 32 30 29 25 26 27 29
31 30 28 25 24 21 19 21 21 22 23 20 16 21 24 22 22 23 24 26 27 29 30 30 31 39 44 45 45 42 38 38 36 36 34 34 35 32 26 26 26 26 25 26
34 33 31 25 24 16 19 18 15 14 19 19 19 21 23 22 28 29 29 29 29 29 30 30 33 34 40 45 44 39 39 37 36 34 31 29 26 25 27 27 26 27 29 29
37 33 31 24 20 23 19 20 20 17 20 23 23 24 25 25 27 34 34 33 31 30 31 32 35 38 40 40 37 36 36 36 31 29 28 28 28 28 27 29 30 31 30 27
33 35 25 32 20 12 23 21 23 21 22 28 27 28 27 28 26 33 34 34 34 35 33 31 32 34 34 33 30 30 31 30 31 31 29 30 30 30 29 30 31 30 27 26
29 31 26 25 20 26 30 24 25 15 23 29 29 30 30 29 33 35 35 34 35 30 29 30 32 32 32 33 33 32 32 30 30 31 32 32 33 31 31 30 28 26 26 27
28 28 27 34 29 22 28 25 19 32 31 30 31 33 34 35 36 37 37 36 31 28 30 32 33 33 33 32 32 32 30 30 31 32 33 33 31 30 30 29 28 27 27 25
27 34 29 31 30 33 26 25 30 30 34 36 38 39 39 40 39 38 30 26 27 29 32 34 32 31 31 31 32 32 31 32 33 32 31 30 31 31 29 28 26 26 26 26
32 34 31 30 30 29 30 39 40 40 39 39 36 35 37 36 30 28 30 32 33 34 34 35 33 31 30 31 30 30 31 31 31 30 31 31 31 29 28 28 28 28 26 26
33 31 30 29 33 39 39 40 38 37 37 35 34 33 31 31 31 33 33 33 34 34 34 33 32 31 29 27 28 30 31 31 30 30 30 27 28 28 29 29 29 27 26 26
33 32 28 30 39 37 36 37 37 36 35 35 34 32 32 33 32 32 32 32 31 31 31 30 30 28 29 29 29 29 29 29 29 27 27 28 28 28 28 28 28 28 27 28

GFSCGP_sfc_30mbdewp_036.txt.gz
Dewpoint
34 29 27 28 28 27 26 25 23 21 19 29 27 23 29 40 45 48 43 41 45 52 53 53 53 55 55 54 55 58 57 57 56 56 55 53 52 53 52 50 50 50 49 48
30 27 30 30 27 27 26 25 23 22 20 25 26 22 24 37 41 44 41 40 42 44 46 50 51 52 53 53 57 58 57 57 56 56 56 53 52 52 51 50 50 47 46 44
27 27 31 29 26 24 25 25 22 24 21 14 20 21 22 25 37 40 41 41 40 41 44 46 51 53 52 57 58 58 57 57 57 57 56 53 51 50 48 47 46 45 44 43
29 31 30 29 27 26 23 25 22 22 18 9 21 17 26 27 27 38 40 42 42 42 43 49 52 54 55 57 59 58 58 57 57 57 56 51 49 47 46 46 44 43 42 41
23 29 28 27 27 28 26 27 25 24 23 22 21 17 20 29 25 32 36 41 43 44 46 53 54 55 56 58 58 58 58 57 57 57 56 51 48 47 46 46 43 42 41 38
25 31 29 28 29 29 30 26 27 30 27 20 25 22 20 26 23 25 28 36 42 47 48 55 57 57 57 58 58 58 58 58 57 58 56 51 48 46 46 44 42 42 36 34
27 28 30 32 27 28 27 25 20 18 19 18 28 24 23 24 28 28 27 37 41 49 51 56 57 57 58 58 58 58 58 57 58 56 55 49 46 45 45 42 40 36 33 31
22 21 27 31 29 28 28 23 20 15 16 19 29 22 22 27 28 32 35 37 47 50 53 54 56 57 57 57 57 58 58 56 53 50 49 45 41 40 38 37 34 34 31 30
25 26 33 32 33 31 25 23 26 27 32 26 25 21 24 30 31 35 38 39 46 49 53 54 55 55 57 57 57 57 54 49 43 40 40 39 38 37 36 35 35 33 32 31
27 23 31 32 30 29 28 25 20 24 17 18 16 19 22 27 29 35 35 38 44 48 53 54 54 55 55 55 55 53 49 45 40 37 37 36 35 35 34 33 32 29 30 31
32 25 27 32 29 24 22 20 21 22 21 16 18 15 18 27 34 34 36 38 44 47 51 53 54 54 53 52 51 48 46 43 39 37 36 35 31 31 32 31 32 31 30 30
32 31 26 23 29 30 27 23 24 18 16 24 21 19 24 25 31 38 39 42 45 46 48 51 52 53 51 50 48 46 45 43 39 37 35 32 32 34 32 31 33 31 32 33
31 29 23 23 24 28 26 22 24 27 25 19 18 18 22 20 21 31 40 42 45 44 44 45 47 50 50 49 48 47 44 43 39 38 35 32 31 30 30 32 33 34 33 32
30 25 22 20 18 23 24 25 24 22 20 21 22 21 22 21 20 19 26 31 42 45 42 42 42 46 48 48 48 47 44 41 38 36 33 32 31 31 32 35 34 31 31 31
28 23 23 21 23 28 25 24 25 23 22 18 17 21 20 20 20 21 23 25 33 42 42 41 41 41 44 45 46 46 42 41 39 36 34 36 35 35 36 33 31 31 31 30
31 22 26 22 27 24 24 23 23 24 23 24 23 22 23 23 25 25 25 26 28 29 30 34 39 41 42 44 45 45 42 40 37 36 37 37 36 34 32 31 29 29 29 28
29 28 26 22 24 21 20 21 22 22 24 23 19 21 22 21 22 23 27 28 28 28 30 32 34 43 44 45 46 44 41 39 38 38 37 37 34 34 32 30 29 29 29 30
31 31 28 24 22 19 22 23 22 20 21 22 22 23 28 29 31 30 30 30 30 30 31 34 37 39 43 46 43 41 40 40 39 36 35 35 31 30 31 30 30 32 32 29
36 32 29 24 21 23 22 19 18 17 22 24 24 25 27 32 34 34 34 34 34 34 35 36 36 36 37 39 40 39 36 32 30 30 30 31 31 31 31 32 33 32 30 30
35 33 29 30 21 19 20 22 23 24 22 28 28 28 28 28 27 32 36 34 31 31 32 32 32 32 32 32 31 31 31 30 31 31 32 32 33 35 34 33 32 31 31 27
29 30 28 26 22 17 25 25 25 11 15 29 30 30 30 30 32 35 33 30 31 32 33 33 32 32 32 32 31 30 31 31 33 35 36 37 37 36 34 31 30 28 27 28
25 28 28 29 22 21 31 24 21 25 32 32 34 35 36 39 38 34 29 30 32 32 32 32 32 32 32 31 31 31 32 33 34 35 36 35 32 31 30 30 30 28 28 27
26 25 25 29 26 31 29 29 33 34 35 38 39 40 40 37 29 28 29 31 33 32 31 31 31 31 32 32 31 31 31 33 34 32 31 30 31 31 31 29 28 26 26 26
32 37 32 32 35 37 38 39 39 40 37 35 37 37 33 30 31 33 33 33 33 33 32 32 31 30 29 29 31 31 31 31 31 30 30 30 30 29 29 28 28 28 28 26
32 33 31 35 38 38 37 37 36 35 34 33 33 33 33 33 32 33 33 33 33 32 32 31 29 28 27 28 29 30 30 30 29 29 29 29 27 28 28 28 28 28 28 27
33 31 29 29 37 35 37 37 36 35 34 33 32 32 33 32 32 31 31 31 31 30 30 29 29 29 29 29 28 28 28 28 28 27 27 26 26 26 26 27 27 28 28 28

GFSCGP_sfc_30mbdewp_039.txt.gz
Dewpoint
34 28 26 26 27 26 26 25 24 23 22 28 26 24 37 43 47 50 50 49 52 55 56 57 57 58 59 57 56 57 57 57 56 56 54 53 52 53 51 50 51 50 50 47
29 26 29 30 29 27 26 23 23 23 23 24 24 26 27 42 46 48 49 46 48 53 55 57 57 58 57 55 56 57 57 56 56 55 54 53 52 52 51 50 50 49 48 45
26 26 31 29 25 25 24 23 24 23 24 18 23 23 22 31 42 46 46 43 45 51 53 55 56 55 56 54 55 57 57 56 56 56 54 53 51 50 49 49 48 46 46 43
28 29 28 29 26 26 21 26 26 25 23 9 21 14 24 25 36 41 43 42 42 48 50 52 53 54 54 54 55 57 57 56 56 56 54 51 50 49 48 48 46 45 45 43
23 30 30 27 25 27 24 28 27 26 23 22 21 17 19 28 27 35 39 41 42 44 47 49 51 53 53 54 56 57 57 57 56 56 55 52 49 48 47 46 45 43 41 40
25 31 29 26 29 29 29 26 27 29 27 20 25 20 19 23 25 28 34 40 42 42 45 47 51 53 53 56 57 58 57 57 56 56 56 52 49 47 46 45 43 41 38 36
27 27 30 32 27 30 27 25 21 19 19 18 27 24 22 22 25 27 28 37 42 44 46 52 53 54 55 56 57 58 58 57 57 56 56 53 50 48 47 45 43 39 35 32
22 20 27 30 28 26 27 24 20 15 15 18 29 23 23 27 31 30 30 33 39 46 48 54 55 55 56 56 57 57 57 57 57 56 56 53 50 48 47 45 42 37 33 32
23 23 32 31 33 29 26 23 26 26 30 24 23 24 21 27 33 37 35 40 44 48 51 54 56 56 56 56 57 57 57 57 55 54 52 50 45 43 44 41 39 36 33 32
25 17 29 32 32 31 26 27 22 24 16 16 19 19 18 25 26 36 38 39 44 49 52 54 56 56 57 57 57 57 57 55 52 49 47 45 44 43 42 39 35 33 32 32
30 19 22 30 26 23 25 22 22 23 20 14 15 17 18 24 27 30 34 37 44 49 52 53 54 55 56 57 57 56 54 52 48 43 42 40 40 39 38 36 33 31 33 32
28 24 18 21 30 29 26 24 22 18 16 24 22 18 23 23 26 33 34 38 42 47 51 53 54 55 55 55 55 55 52 49 44 39 38 38 38 38 36 34 32 33 32 32
32 26 19 20 23 28 26 26 27 26 24 20 16 17 23 21 20 27 35 39 42 45 47 51 53 54 54 53 52 52 51 47 41 39 39 38 36 34 33 34 35 33 33 34
29 28 20 17 18 23 24 25 24 25 20 19 21 19 22 21 22 21 22 33 41 45 45 47 50 52 53 52 51 49 47 44 42 40 38 36 36 34 35 35 35 34 33 33
27 22 24 23 21 25 23 23 25 22 22 20 19 23 23 22 20 21 21 26 36 42 43 43 44 46 48 50 50 49 46 44 42 40 38 36 36 36 37 35 33 34 34 33
29 23 23 22 26 25 24 24 24 25 23 23 23 22 24 23 26 26 27 29 30 30 32 36 41 42 42 45 47 47 46 43 42 40 40 39 38 37 34 33 33 32 31 31
27 26 23 19 25 22 20 23 24 23 24 23 20 21 23 23 24 27 28 28 28 30 32 34 35 41 43 44 46 46 43 40 39 40 40 39 36 35 33 32 32 31 33 35
28 26 26 20 22 16 21 25 23 23 22 22 22 22 26 27 29 30 30 30 30 32 35 38 39 41 44 44 42 40 39 39 39 39 39 37 33 32 32 32 34 34 37 36
33 29 25 22 21 22 23 21 20 18 20 24 25 29 31 33 33 33 34 35 34 34 34 33 34 37 39 40 40 37 33 32 32 32 32 33 34 34 35 35 37 38 35 31
33 32 25 25 23 22 23 24 23 24 18 25 27 29 32 31 24 32 35 32 32 33 32 32 32 32 32 32 32 31 31 31 31 32 33 35 36 38 38 37 34 33 31 30
32 30 29 26 25 24 24 25 23 15 14 28 29 29 30 26 29 34 31 32 33 32 32 32 32 31 30 31 32 31 31 32 35 37 38 39 39 38 36 33 31 30 29 28
29 30 29 26 24 25 28 27 17 21 31 31 31 33 35 37 32 31 32 32 31 31 31 32 32 32 32 32 33 34 34 36 36 37 37 36 34 31 30 30 30 29 28 27
25 28 29 29 28 30 32 27 31 33 31 34 35 38 37 32 30 31 32 32 31 31 31 31 31 31 32 32 32 32 33 34 33 32 31 30 30 30 30 30 29 28 27 26
32 33 27 30 34 35 37 37 37 38 37 38 40 38 31 30 31 32 32 33 32 32 31 30 28 28 29 30 31 31 31 31 30 29 29 29 29 29 27 28 28 28 27 26
32 34 34 35 38 37 37 36 35 34 34 34 34 33 33 33 32 32 33 32 31 31 30 29 28 28 28 29 29 30 30 30 28 28 28 28 27 27 27 27 27 26 27 27
34 32 31 29 37 32 36 36 35 33 33 33 33 32 33 33 32 31 31 30 29 29 29 29 29 29 28 28 29 30 30 29 28 27 27 27 27 27 27 26 26 27 28 28

GFSCGP_sfc_30mbdewp_042.txt.gz
Dewpoint
34 29 26 25 26 26 26 25 23 24 23 31 32 30 38 45 47 50 51 52 53 53 53 55 56 56 56 57 57 57 57 57 56 56 55 55 54 54 52 52 52 51 49 47
29 27 27 29 29 29 26 23 23 24 24 25 24 26 34 43 44 49 50 51 51 53 54 55 56 57 57 57 57 57 57 57 56 56 55 54 53 53 51 51 50 50 48 47
26 25 31 30 26 26 24 22 23 24 25 20 22 22 24 37 44 48 50 50 50 51 53 55 56 56 57 57 56 57 57 56 56 56 54 52 51 51 50 49 49 49 47 45
29 29 28 28 27 25 21 26 26 25 23 18 21 14 22 26 40 44 47 48 48 47 53 55 56 56 57 57 56 57 57 56 56 55 54 52 51 49 49 48 48 47 46 43
25 29 29 27 26 27 23 28 27 26 24 22 21 19 17 28 27 39 43 46 46 46 50 53 55 56 56 56 55 56 57 56 56 56 54 52 50 49 48 48 47 45 44 42
26 31 30 28 29 28 29 26 26 28 26 20 22 21 19 22 23 26 38 43 45 44 48 51 53 54 54 55 55 56 56 56 56 56 55 52 51 49 48 47 46 43 41 40
27 27 29 32 27 29 27 24 20 19 20 18 26 25 24 24 25 26 28 36 41 44 45 48 50 52 53 54 55 56 56 56 56 56 56 54 52 51 49 47 45 41 37 36
20 17 27 31 27 25 26 24 21 15 15 16 26 21 19 27 30 34 32 30 37 42 44 46 48 52 53 54 55 56 57 56 56 56 56 55 53 52 49 48 46 41 37 34
22 22 31 31 32 29 26 23 25 25 29 24 22 24 21 28 34 35 35 37 36 43 45 47 50 52 54 55 55 56 57 57 57 56 56 55 53 52 50 48 45 40 36 35
24 17 29 31 32 31 26 29 22 24 17 16 18 19 16 19 25 34 34 36 42 46 48 51 53 54 55 55 56 57 57 57 57 56 55 54 52 51 49 47 43 39 37 34
26 19 20 31 27 23 26 24 23 23 20 15 14 15 20 18 24 28 34 37 40 46 50 52 54 55 55 56 56 56 56 56 56 54 53 52 49 47 47 45 44 40 36 34
27 21 16 18 29 29 25 24 23 20 18 23 21 17 23 21 23 24 29 36 39 46 49 52 54 55 56 56 56 56 56 56 54 50 48 48 47 46 44 43 39 36 34 35
28 22 15 16 22 28 26 26 26 25 24 20 18 18 22 23 21 22 27 34 39 44 48 51 53 54 55 55 56 56 56 54 49 47 45 44 44 43 40 37 36 35 34 34
28 25 17 14 15 21 24 25 27 25 22 21 21 20 21 22 22 22 23 23 35 43 44 47 51 53 53 54 54 54 53 50 46 44 43 42 40 38 38 37 35 36 36 34
26 19 24 21 22 23 23 24 25 24 23 21 22 22 22 23 22 21 23 31 34 40 44 45 46 48 51 52 51 51 49 46 45 43 42 39 39 38 38 36 36 36 35 34
30 23 23 23 25 25 24 24 25 25 24 23 23 22 24 25 26 26 29 32 32 33 35 38 41 42 43 45 49 50 48 46 43 41 39 38 39 37 36 35 33 33 36 37
27 25 23 20 25 23 21 23 24 23 25 24 23 24 23 24 26 28 29 30 30 33 36 38 40 43 44 44 45 47 45 43 41 41 40 39 37 35 35 34 34 35 36 39
27 25 23 20 22 17 21 26 25 25 25 25 23 23 23 25 28 30 30 30 33 35 35 35 37 40 41 41 40 40 40 40 41 39 38 37 35 33 33 35 37 38 39 38
32 26 23 20 20 21 22 22 22 20 18 23 23 26 28 32 33 34 33 33 33 33 33 33 33 34 34 34 33 33 33 34 34 34 33 33 34 35 36 37 39 39 38 36
31 29 22 23 19 17 22 25 23 22 16 25 27 30 31 32 24 32 32 33 32 32 32 32 32 32 32 32 32 32 32 33 33 34 35 37 38 38 39 38 37 35 33 31
30 29 22 23 22 25 27 24 23 16 17 26 30 31 32 27 26 33 33 32 32 32 31 31 31 31 32 32 32 33 34 35 36 38 39 39 39 38 38 36 33 31 29 29
29 29 28 26 25 24 26 25 19 22 27 28 30 32 31 33 32 32 32 31 31 31 31 32 31 31 32 34 34 34 35 36 37 37 36 34 32 31 31 30 30 29 28 27
29 30 29 30 29 31 30 25 27 29 29 30 30 35 34 32 32 32 31 30 30 31 31 31 31 32 32 33 33 33 33 32 31 30 30 29 29 30 30 28 28 28 27 26
31 32 28 29 31 32 35 36 37 36 34 36 37 36 33 32 32 31 31 31 30 30 28 29 29 29 30 31 31 31 31 30 28 28 28 28 28 27 27 27 27 27 26 25
31 32 31 31 35 37 36 36 35 35 36 36 34 33 32 32 32 32 31 31 30 29 28 29 29 29 28 29 30 31 29 28 28 28 28 28 28 27 27 27 27 27 27 27
34 31 28 24 30 29 31 35 35 35 35 34 33 32 32 32 32 31 31 30 28 28 29 29 28 28 29 28 28 28 29 29 28 27 27 27 27 27 27 26 25 26 27 27

GFSCGP_sfc_30mbdewp_045.txt.gz
Dewpoint
34 29 26 25 26 25 25 25 23 24 24 32 33 33 35 48 50 49 49 50 51 51 52 53 54 56 54 55 56 56 58 59 58 57 56 56 56 57 56 55 55 54 51 50
30 27 28 29 29 28 27 24 23 24 24 25 24 23 30 44 48 49 48 50 50 51 52 53 55 55 56 54 55 56 57 58 58 57 56 55 56 56 55 53 53 52 52 50
27 25 31 30 27 27 26 23 24 24 25 22 23 21 24 38 44 46 49 50 51 51 52 54 55 55 55 55 55 56 57 58 58 58 56 55 55 54 52 51 51 51 50 48
29 30 28 29 27 26 23 24 26 25 24 18 21 14 20 27 40 43 44 49 50 50 52 53 55 55 55 56 56 56 57 57 58 58 55 54 53 53 53 52 52 51 49 47
25 27 28 27 26 27 24 28 27 27 25 23 22 19 19 27 27 38 43 46 49 50 50 52 54 56 56 57 57 57 57 57 57 57 56 55 54 54 53 52 51 49 48 45
26 31 30 29 29 28 29 27 26 28 26 20 22 20 20 22 24 26 33 43 46 48 49 51 54 56 57 58 58 57 57 57 57 57 56 55 54 52 51 51 49 47 47 44
27 28 29 31 28 30 28 25 20 20 21 18 27 25 23 25 25 26 28 30 41 47 48 49 52 55 56 56 57 57 57 57 57 57 56 55 54 52 51 50 49 46 46 44
19 16 27 31 27 26 27 25 21 15 17 17 27 20 18 28 28 35 36 35 33 43 46 47 50 53 55 56 56 56 56 56 57 57 56 56 55 53 52 51 50 47 45 44
21 20 28 31 31 28 26 24 26 25 28 23 21 23 23 28 29 33 35 36 36 38 43 46 48 51 53 54 55 56 56 56 56 57 57 56 55 55 52 51 50 48 46 42
24 18 29 31 32 32 27 29 24 25 19 18 19 20 14 17 24 29 33 35 38 43 45 46 48 50 53 54 55 56 56 56 57 57 57 56 56 55 54 53 51 48 45 41
26 20 21 30 28 24 28 25 24 24 22 16 15 16 22 19 22 26 31 35 38 43 46 49 51 52 53 54 55 56 56 56 56 57 57 57 56 55 54 52 51 47 44 40
26 22 17 20 29 29 27 26 25 21 19 23 21 18 22 24 22 24 25 35 38 42 47 50 52 54 54 54 55 55 56 56 56 56 55 55 55 53 53 51 50 47 43 39
27 21 16 16 23 28 27 26 26 26 25 22 20 19 23 24 24 23 25 30 39 42 47 50 52 53 55 55 56 56 56 56 56 54 53 52 51 50 49 49 46 43 41 39
26 23 18 15 16 22 23 26 27 26 23 23 22 22 23 24 23 24 25 26 25 41 45 49 52 53 54 55 55 56 56 55 52 50 48 48 48 48 47 44 42 41 39 37
24 19 22 19 18 22 20 23 26 25 25 23 23 23 23 25 24 24 25 31 38 42 44 45 47 50 53 54 54 54 54 51 50 48 47 45 44 42 41 39 38 38 37 37
29 21 24 20 25 23 21 24 26 26 25 25 24 23 25 25 26 26 30 35 35 36 39 42 43 43 44 47 50 51 49 47 46 45 43 41 39 38 37 36 36 37 38 37
29 25 23 20 25 23 22 24 25 25 26 25 21 23 26 25 26 29 31 33 35 37 37 39 41 41 42 43 46 46 45 44 43 41 40 39 37 35 35 36 37 37 38 40
29 27 25 21 23 20 23 26 25 24 25 26 25 25 25 26 29 31 32 35 35 34 36 37 38 39 39 39 41 41 42 41 40 39 37 36 35 34 35 37 39 39 39 39
31 27 23 22 21 22 21 23 22 20 18 23 24 25 26 32 33 32 34 35 34 34 34 35 35 35 35 36 36 37 36 36 36 35 34 34 35 36 38 38 39 40 39 39
31 29 26 23 20 19 22 24 25 22 19 22 23 26 29 33 27 31 33 33 33 33 33 33 34 34 34 34 35 35 35 35 35 35 36 36 37 38 38 39 38 37 35 33
28 27 24 23 21 23 26 25 24 19 20 23 27 30 32 29 30 35 33 33 33 32 32 33 33 33 33 34 35 35 35 35 36 37 38 39 39 38 37 35 33 31 30 30
28 26 24 24 23 21 28 24 21 25 25 27 31 33 34 32 33 33 32 32 32 32 32 32 33 33 34 34 34 35 36 37 36 35 32 31 31 30 30 30 30 29 29 29
30 29 26 26 26 32 28 27 27 27 26 30 32 35 34 33 33 32 31 31 31 31 31 32 32 33 33 34 34 32 31 30 30 29 29 29 28 28 28 27 28 27 28 28
32 33 30 30 31 31 31 33 35 33 31 33 34 35 34 33 32 31 31 31 30 30 31 31 31 30 29 30 30 30 29 29 28 28 29 29 28 28 28 27 27 26 26 26
32 33 31 30 31 36 36 37 35 35 37 36 35 34 33 33 31 31 30 30 29 29 29 29 29 29 29 29 29 30 30 29 28 27 26 25 23 21 19 18 19 18 19 23
34 31 29 28 30 30 29 36 37 35 35 35 34 33 33 33 32 31 30 29 29 29 29 28 29 27 26 25 24 25 25 24 23 20 17 17 17 16 16 15 14 18 19 20

GFSCGP_sfc_30mbdewp_048.txt.gz
Dewpoint
31 27 23 19 21 19 21 19 16 22 26 29 26 24 27 43 46 43 42 44 46 48 48 51 49 50 50 51 53 54 56 57 60 56 52 47 50 54 57 58 58 57 55 54
30 25 25 28 28 25 25 20 18 23 25 25 20 19 23 38 42 43 40 42 42 45 48 50 52 50 50 50 52 53 54 55 58 56 52 49 48 52 53 56 58 57 56 54
23 24 29 28 27 25 26 21 21 20 24 23 21 18 22 31 39 43 43 41 42 43 47 49 50 52 53 51 53 52 52 54 57 57 55 52 51 54 54 55 56 54 54 53
24 26 27 27 25 26 22 25 24 24 21 16 22 13 16 24 32 39 43 44 44 44 45 48 50 52 52 53 52 53 53 54 57 58 55 52 48 50 53 55 55 54 54 53
22 27 28 25 24 27 22 25 25 25 21 20 19 16 16 25 22 30 36 40 43 43 44 45 49 52 53 53 54 53 53 54 56 57 57 54 50 49 53 56 55 54 53 52
23 29 28 24 28 28 28 27 26 26 23 20 16 17 14 15 18 19 25 35 40 44 45 45 46 50 52 54 54 56 54 54 55 57 58 57 55 52 52 55 55 54 52 51
23 23 25 30 26 30 28 24 19 20 20 19 24 20 16 20 23 26 26 27 32 41 45 46 46 49 52 54 56 57 56 54 55 56 57 57 57 57 55 54 54 54 52 49
18 17 24 26 23 23 25 23 20 18 18 17 25 18 17 24 26 29 34 35 35 34 40 45 47 48 51 54 57 57 56 55 55 57 57 58 58 58 57 56 55 54 51 49
16 15 24 28 28 25 26 24 25 24 29 23 18 20 19 23 25 26 32 34 34 34 36 42 44 47 51 54 56 57 57 55 55 57 58 58 58 58 57 56 55 52 50 49
22 16 27 30 31 31 27 27 24 24 20 17 17 17 12 16 18 22 22 29 36 40 39 40 42 45 49 53 55 57 57 56 56 57 58 58 57 57 57 57 53 52 51 50
21 20 27 30 28 24 28 25 26 24 23 18 15 15 19 17 20 24 27 29 32 39 43 44 45 47 49 51 54 56 56 56 56 57 57 58 57 57 57 56 55 54 53 51
23 21 18 21 27 28 23 22 25 20 18 21 21 18 19 21 24 26 26 30 35 38 42 46 49 50 50 52 52 53 54 54 55 56 57 57 57 57 56 56 56 55 51 48
26 21 17 18 23 27 23 24 23 24 26 19 22 19 24 25 25 25 25 29 35 39 41 46 49 51 52 53 53 54 55 55 55 56 56 56 55 55 54 53 51 49 48 45
27 19 18 16 15 17 21 22 22 22 21 19 22 19 21 22 22 23 26 26 27 32 42 45 49 50 52 54 55 55 56 57 56 54 53 52 52 51 50 49 47 45 44 42
26 19 20 17 16 15 15 15 20 21 22 19 21 20 22 23 24 23 27 29 32 34 42 45 47 50 52 54 55 55 56 55 54 52 50 49 48 47 46 46 45 43 40 39
29 20 22 20 20 19 16 16 16 20 18 21 22 20 23 25 27 27 27 31 35 39 42 44 45 46 46 48 50 51 51 50 50 49 47 45 44 43 42 40 39 39 38 38
30 24 23 18 23 22 23 24 21 21 25 25 20 22 22 25 26 27 30 33 37 39 40 41 41 42 44 46 48 47 47 47 46 44 42 41 39 38 38 37 37 37 39 41
32 29 28 21 25 22 19 26 23 22 23 24 24 23 24 24 27 30 32 35 35 36 38 39 40 41 42 44 44 44 44 43 42 41 39 38 37 37 37 37 39 40 40 40
35 31 29 27 23 20 23 24 25 24 22 23 23 22 22 28 31 32 34 35 35 37 38 38 39 39 40 40 41 40 40 39 38 37 37 36 37 37 38 38 39 40 40 39
35 34 31 28 23 22 21 23 26 25 21 22 22 23 24 30 27 26 35 35 36 36 37 37 38 38 38 38 39 38 38 37 37 37 36 37 38 38 38 39 39 37 36 32
31 32 30 29 27 25 27 26 26 20 21 24 23 26 28 29 28 34 35 35 35 35 36 36 36 37 37 38 38 37 37 36 36 37 38 38 38 36 35 34 32 30 29 29
30 30 30 30 30 25 28 25 23 25 33 29 31 30 31 33 36 35 34 34 33 34 35 35 36 36 36 36 36 36 36 37 37 35 33 31 31 28 28 27 26 25 25 26
28 31 30 29 28 32 30 27 28 33 29 31 31 32 33 36 35 34 34 33 33 33 34 34 35 35 35 35 35 34 34 34 32 30 28 27 26 26 26 26 27 25 26 27
32 35 33 32 28 31 33 30 32 31 31 31 32 34 36 34 34 34 33 33 33 33 33 33 33 33 32 31 30 29 28 27 26 26 27 27 26 25 24 22 19 16 18 18
30 34 32 32 32 34 35 35 32 34 35 35 33 35 35 35 34 33 33 32 32 32 32 32 31 31 29 29 28 27 27 26 25 25 23 22 20 13 10 9 13 14 17 19
34 33 32 31 32 33 31 34 36 36 35 35 34 35 35 34 33 33 32 32 31 31 31 30 30 28 26 26 25 25 24 23 21 17 14 15 15 14 11 9 10 19 18 18

GFSCGP_sfc_30mbdewp_051.txt.gz
Dewpoint
25 23 21 21 19 16 15 13 10 16 24 24 26 24 33 38 38 39 40 41 41 45 47 49 49 50 49 50 52 53 54 55 56 54 51 46 50 50 51 54 56 57 57 58
25 23 22 24 23 21 17 17 13 20 21 22 23 21 24 33 37 36 38 39 40 42 46 48 50 50 49 49 51 52 52 53 56 54 51 47 45 47 48 51 55 55 57 56
23 22 25 24 22 18 17 18 19 20 28 18 17 15 15 20 32 35 35 36 37 40 44 47 47 48 50 49 51 52 53 54 57 56 52 49 46 46 48 50 53 56 57 56
23 23 25 23 22 19 16 19 21 19 17 14 22 13 23 19 26 33 34 34 35 37 42 45 48 48 48 48 50 51 52 52 52 53 52 50 47 44 47 49 52 56 57 57
21 22 24 23 23 21 19 24 21 19 19 18 23 17 21 19 20 25 34 35 35 36 39 43 46 48 50 50 50 52 51 51 51 53 54 53 51 47 48 51 53 56 56 56
20 23 24 24 24 24 23 24 22 22 19 18 18 18 17 20 15 18 24 31 36 36 38 40 44 46 49 50 52 52 51 50 51 52 54 54 52 50 46 50 54 55 55 55
20 22 24 25 24 27 24 21 20 19 16 19 20 15 14 26 20 19 21 23 30 35 38 39 40 44 48 50 52 53 52 50 51 52 54 55 54 54 52 50 55 54 55 54
18 16 22 24 22 25 22 21 22 21 20 19 23 15 15 22 22 22 23 27 28 30 36 39 40 41 46 50 52 53 53 53 51 54 56 56 56 56 56 56 55 55 55 55
16 16 18 20 23 22 23 20 22 21 26 22 21 17 24 21 16 21 22 28 30 32 32 36 40 42 44 50 53 55 55 54 54 57 59 58 58 58 59 59 58 57 58 54
17 16 18 21 23 23 23 27 21 23 21 20 15 15 15 17 17 16 18 22 31 36 34 34 38 41 45 48 53 56 57 56 55 55 57 57 57 60 59 59 58 58 56 53
18 18 19 26 25 22 24 25 24 23 22 24 17 16 18 16 17 18 20 21 23 33 39 39 40 41 42 46 51 55 57 56 55 55 57 58 58 58 59 58 58 57 55 54
19 19 20 23 23 23 23 23 24 22 22 21 20 20 20 20 19 21 22 23 24 28 38 43 44 45 46 48 50 54 56 56 55 55 56 58 58 58 58 58 57 57 56 53
21 18 18 19 23 25 24 25 24 25 24 22 25 21 22 20 20 20 20 21 25 30 33 41 47 48 48 50 51 53 54 53 54 55 55 57 57 56 56 54 53 52 51 49
26 20 19 17 18 20 20 20 20 21 23 22 19 17 21 21 20 21 21 23 25 32 33 35 42 47 50 51 52 52 54 54 55 55 55 55 54 53 53 52 50 48 46 43
27 20 19 18 17 16 16 17 18 18 20 20 20 18 20 20 20 21 22 23 24 26 31 37 39 44 48 52 53 55 56 56 55 53 52 51 51 50 49 48 47 46 43 42
26 23 21 17 17 16 14 14 13 13 15 17 17 16 18 19 19 22 25 25 26 29 31 37 42 47 50 53 54 54 53 53 53 51 50 48 48 47 45 44 44 43 42 41
27 26 21 20 18 17 18 16 15 14 14 16 16 17 19 19 19 20 22 25 29 34 38 42 45 47 48 50 51 50 49 49 48 46 45 44 42 42 40 39 39 39 39 40
31 27 25 24 25 21 21 20 19 18 18 17 18 19 20 18 18 23 25 28 34 38 41 42 42 43 45 45 46 45 45 44 43 42 41 41 40 39 39 39 40 40 40 40
32 32 28 27 24 20 18 21 21 18 17 17 18 20 19 19 25 29 30 33 37 38 38 39 40 41 42 42 42 42 41 41 40 39 39 39 39 39 39 39 39 40 40 39
29 33 33 30 24 20 22 22 22 20 20 19 19 19 20 21 26 23 33 36 36 37 38 38 39 40 40 40 40 39 38 38 38 38 38 38 39 38 39 40 39 38 38 34
33 34 34 32 27 23 22 21 22 22 22 22 21 20 22 21 25 31 35 36 37 36 37 38 38 38 39 39 39 38 38 38 38 38 38 39 39 39 38 36 35 32 30 28
33 30 34 33 30 27 27 26 23 26 27 28 26 25 26 27 36 36 36 35 35 36 37 37 38 38 39 39 38 37 37 38 38 37 36 35 34 32 32 30 27 24 25 26
28 33 31 30 29 32 31 28 28 26 27 31 29 29 30 35 36 35 35 34 35 35 35 37 37 38 38 37 37 37 37 36 35 34 32 30 26 24 24 24 25 23 25 25
26 28 31 31 31 31 33 33 30 32 31 32 32 30 32 36 36 35 34 34 34 34 35 36 36 36 36 36 35 35 34 33 31 28 27 25 24 23 22 20 14 14 18 18
24 25 28 28 27 27 30 34 35 33 33 33 32 32 33 36 35 34 34 34 34 34 34 35 35 35 33 32 31 29 28 27 25 25 23 22 18 14 10 12 13 16 20 18
25 28 30 29 24 32 33 33 36 35 34 36 33 32 35 35 35 34 34 34 33 33 34 34 34 32 30 29 27 27 26 24 22 19 18 19 17 15 9 9 16 17 16 18

GFSCGP_sfc_30mbdewp_057.txt.gz
Dewpoint
24 23 21 21 21 21 21 21 17 17 25 24 33 36 36 37 44 46 45 46 46 50 51 51 50 51 51 51 52 52 51 51 51 50 48 47 48 47 53 53 52 55 57 57
23 22 24 23 21 21 23 20 17 17 28 24 26 36 37 39 41 43 43 45 45 48 51 50 50 50 49 50 51 51 50 48 47 47 48 49 49 49 50 53 53 56 57 58
23 24 24 23 22 22 22 20 17 16 24 24 22 22 35 39 41 41 44 43 45 48 48 49 48 49 48 50 50 48 49 48 48 48 50 52 52 52 53 52 51 57 58 58
25 25 24 23 23 23 20 21 17 15 21 20 21 17 23 39 39 44 42 41 44 48 49 48 48 48 48 49 50 49 50 49 49 52 53 52 51 49 51 51 51 55 58 58
23 23 24 23 24 24 21 24 24 22 21 16 17 20 21 34 37 42 42 40 43 47 49 49 48 48 49 50 50 50 51 48 48 49 53 54 53 50 49 51 51 54 57 58
24 24 23 23 24 24 23 23 22 24 23 18 20 20 19 22 23 33 35 38 40 45 48 49 49 49 49 51 53 53 52 52 49 51 54 55 55 51 48 48 50 55 57 58
24 24 23 23 22 23 22 21 20 20 20 19 25 24 22 24 27 25 33 34 38 42 47 48 48 50 50 50 53 53 53 54 54 54 55 55 56 55 51 49 50 54 57 57
22 21 23 22 21 22 22 22 21 18 21 20 29 24 24 27 26 26 25 31 34 39 45 47 48 49 50 50 52 52 52 52 53 53 55 56 56 56 55 54 54 55 56 57
21 21 22 21 22 23 25 22 24 22 28 27 28 29 28 27 26 26 22 26 31 36 41 46 47 48 48 50 50 52 52 52 53 53 55 56 56 55 57 56 56 57 58 57
22 20 22 21 21 24 23 26 23 23 20 21 23 25 24 25 24 24 20 23 26 34 36 40 47 48 48 48 50 50 52 53 52 53 53 54 57 57 58 58 57 58 57 56
21 22 21 23 21 22 22 21 22 27 27 22 21 22 27 26 26 21 18 23 30 34 35 37 39 45 49 49 50 50 50 52 53 53 54 54 58 59 59 58 57 56 56 55
23 22 20 21 23 23 23 21 22 26 26 27 25 24 27 26 27 24 21 23 26 35 36 38 40 42 45 48 50 51 53 53 54 54 57 57 58 58 58 58 57 59 57 56
24 20 20 21 21 22 21 21 23 24 30 27 26 27 29 27 26 25 20 23 26 37 39 41 43 44 45 49 49 52 54 56 57 59 58 58 57 58 58 57 56 55 53 52
26 21 19 20 22 23 22 21 22 24 23 23 28 28 30 30 28 20 24 26 25 32 40 42 44 45 47 49 54 57 58 60 58 59 58 58 56 55 53 51 51 50 49 48
26 21 20 22 24 24 24 25 23 22 25 26 27 28 28 28 27 25 29 28 27 28 40 43 45 46 49 52 56 55 56 57 57 56 55 53 52 51 49 48 47 46 46 46
31 23 22 20 22 24 24 26 25 22 26 27 28 27 30 26 27 26 26 28 27 25 30 42 45 48 50 54 55 54 54 53 54 53 52 51 50 49 47 46 45 44 43 43
36 27 26 22 24 23 23 22 24 25 23 22 20 21 21 25 24 27 24 26 27 26 25 29 46 50 52 55 55 54 53 52 52 51 51 50 49 47 46 44 43 42 41 41
38 35 29 24 25 21 24 23 22 21 22 20 19 18 19 19 20 22 25 25 28 27 32 45 47 52 55 56 55 54 52 51 50 49 47 47 45 45 43 42 42 41 41 40
40 37 29 26 25 24 24 23 22 20 21 21 19 19 19 19 23 27 28 30 33 37 43 49 52 54 53 52 50 49 48 47 45 44 44 43 42 41 41 41 41 41 41 41
37 39 30 32 26 22 26 28 29 26 20 24 24 23 21 21 20 24 31 36 41 44 45 47 49 49 50 49 47 46 44 43 43 43 42 41 41 41 41 41 40 40 39 39
30 32 32 32 31 31 29 27 28 22 23 25 26 26 25 25 26 29 36 40 41 42 43 45 45 46 46 45 44 43 42 41 41 41 41 42 41 40 40 40 39 39 37 31
28 28 27 31 31 28 36 33 23 26 26 28 27 28 25 31 32 34 38 39 39 40 42 42 42 42 42 42 41 41 40 40 41 41 40 40 40 39 39 37 37 34 31 30
26 26 28 27 29 37 35 38 40 40 40 36 35 35 37 36 34 36 37 38 38 39 40 40 41 40 40 40 39 39 39 40 40 39 39 38 38 37 37 30 29 30 30 29
29 33 28 30 32 29 30 36 35 41 41 42 38 39 41 40 39 37 37 37 37 38 38 39 40 39 39 39 39 39 39 38 38 37 37 36 32 29 24 25 25 23 21 20
28 30 27 30 32 33 34 31 32 35 41 38 41 35 38 41 40 38 37 37 37 37 38 39 39 39 39 39 38 38 37 37 34 32 28 26 22 18 21 23 20 18 21 23
27 23 26 25 32 29 36 38 39 36 33 37 38 38 35 39 38 38 37 37 37 37 38 39 39 37 36 36 36 36 34 31 29 25 23 21 20 17 17 20 17 19 17 17